FW4522 Weather Reports


time (UTC)temp
F
wind
direction
speed
knots
gust
knots
rain 1hr
in
rain 24hr
in
rain mn
in
humidity
%
barometer
mb
20260505124533 71 360 4.3 10.4 0.00 0.00 0.00 48 1006.7
20260505123029 71 360 1.7 11.3 0.00 0.00 0.00 50 1006.9
20260505121534 72 360 2.6 10.4 0.00 0.00 0.00 49 1006.9
20260505120037 72 360 3.5 8.7 0.00 0.00 0.00 47 1007.1
20260505114523 73 360 4.3 10.4 0.00 0.00 0.00 45 1007.1
20260505113022 74 360 5.2 9.6 0.00 0.00 0.00 44 1007.1
20260505111521 74 360 4.3 9.6 0.00 0.00 0.00 43 1007.3
20260505101515 72 360 5.2 9.6 0.00 0.00 0.00 48 1007.7
20260505100014 72 360 4.3 7.8 0.00 0.00 0.00 48 1008.0
20260505094511 72 360 2.6 7.8 0.00 0.00 0.00 46 1008.2
20260505093008 71 360 2.6 7.0 0.00 0.00 0.00 47 1008.3
20260505091506 70 360 1.7 5.2 0.00 0.00 0.00 51 1008.4
20260505090005 69 360 1.7 7.0 0.00 0.00 0.00 52 1008.7
20260505084559 68 360 2.6 4.3 0.00 0.00 0.00 51 1008.6
20260505083100 67 360 2.6 4.3 0.00 0.00 0.00 54 1008.8
20260505081604 66 360 2.6 4.3 0.00 0.00 0.00 57 1008.9
20260505080053 65 360 0.9 5.2 0.00 0.00 0.00 56 1008.9
20260505074551 65 360 2.6 4.3 0.00 0.00 0.00 57 1009.0
20260505073054 64 360 0.0 2.6 0.00 0.00 0.00 57 1009.2
20260505071556 63 360 1.7 3.5 0.00 0.00 0.00 58 1009.3
20260505070041 61 360 0.9 3.5 0.00 0.00 0.00 63 1009.4
20260505064540 61 360 0.9 3.5 0.00 0.00 0.00 63 1009.6
20260505063034 59 360 1.7 4.3 0.00 0.00 0.00 65 1009.6
20260505061531 58 360 1.7 3.5 0.00 0.00 0.00 64 1009.7
20260505060041 56 360 1.7 3.5 0.00 0.00 0.00 67 1009.8
20260505054524 54 360 0.0 0.0 0.00 0.00 0.00 71 1009.7
20260505053021 51 360 0.0 0.0 0.00 0.00 0.00 78 1009.8
20260505051525 46 360 0.0 0.0 0.00 0.00 0.00 86 1009.6
20260505041520 41 360 0.0 0.0 0.00 0.00 0.00 84 1009.9
20260505040010 42 360 0.0 0.0 0.00 0.00 0.00 83 1009.8
20260505034506 43 360 0.0 0.0 0.00 0.00 0.00 82 1009.8
20260505033005 44 360 0.0 0.0 0.00 0.00 0.00 81 1009.8
20260505031505 44 360 0.0 0.0 0.00 0.00 0.00 82 1009.9
20260505030007 45 360 0.0 0.0 0.00 0.00 0.00 82 1009.9
20260505024509 45 360 0.0 0.0 0.00 0.00 0.00 83 1010.0
20260505023013 45 360 0.0 0.0 0.00 0.00 0.00 83 1010.1
20260505021503 44 360 0.0 0.0 0.00 0.00 0.00 84 1010.1
20260505020002 44 360 0.0 0.0 0.00 0.00 0.00 84 1010.2
20260505014502 44 360 0.0 0.0 0.00 0.00 0.00 84 1010.3
20260505013127 43 360 0.0 0.0 0.00 0.00 0.00 83 1010.4
20260505011620 44 360 0.0 0.0 0.00 0.00 0.00 83 1010.5
20260505010110 44 360 0.0 0.0 0.00 0.00 0.00 83 1010.6
20260505004556 44 360 0.0 0.0 0.00 0.00 0.00 82 1010.7
20260505003101 44 360 0.0 0.0 0.00 0.00 0.00 82 1010.9
20260505001554 44 360 0.0 0.0 0.00 0.00 0.00 81 1010.9
20260505000059 45 360 0.0 0.0 0.00 0.00 0.00 80 1011.2
20260504234550 45 360 0.0 0.0 0.00 0.00 0.00 80 1011.3
20260504233055 45 360 0.0 0.0 0.00 0.00 0.00 81 1011.4
20260504231547 45 360 0.0 0.0 0.00 0.00 0.00 80 1011.4
20260504230045 46 360 0.0 0.0 0.00 0.00 0.00 80 1011.4
20260504224543 46 360 0.0 0.0 0.00 0.00 0.00 80 1011.7
20260504223047 46 360 0.0 0.0 0.00 0.00 0.00 79 1011.7
20260504221538 48 360 0.0 0.0 0.00 0.00 0.00 77 1011.9
20260504220041 48 360 0.0 0.0 0.00 0.00 0.00 77 1011.9
20260504214542 49 360 0.0 0.0 0.00 0.00 0.00 76 1011.9
20260504213040 50 360 0.0 0.0 0.00 0.00 0.00 75 1011.8
20260504211537 51 360 0.0 0.0 0.00 0.00 0.00 74 1011.7
20260504210034 51 360 0.0 0.0 0.00 0.00 0.00 73 1011.8
20260504204534 53 360 0.0 0.0 0.00 0.00 0.00 72 1011.7
20260504203036 54 360 0.0 0.0 0.00 0.00 0.00 70 1011.7
20260504201533 55 360 0.0 0.0 0.00 0.00 0.00 66 1011.7
20260504200033 58 360 0.0 0.0 0.00 0.00 0.00 60 1011.7
20260504194533 61 360 0.0 0.0 0.00 0.00 0.00 53 1011.6
20260504193032 62 360 0.0 2.6 0.00 0.00 0.00 52 1011.7
20260504191534 64 360 1.7 5.2 0.00 0.00 0.00 49 1011.9
20260504190032 63 360 1.7 4.3 0.00 0.00 0.00 50 1012.0
20260504184535 62 360 1.7 4.3 0.00 0.00 0.00 54 1011.8
20260504183032 64 360 0.0 2.6 0.00 0.00 0.00 51 1011.8
20260504181536 67 360 0.0 3.5 0.00 0.00 0.00 48 1011.5
20260504180031 67 360 1.7 2.6 0.00 0.00 0.00 46 1011.5
20260504174530 69 360 0.9 4.3 0.00 0.00 0.00 44 1011.5
20260504173032 70 360 1.7 4.3 0.00 0.00 0.00 43 1011.4
20260504171533 71 360 1.7 10.4 0.00 0.00 0.00 43 1011.5